Wind_Speed
14 15 14 14 14 14 13 13 12 12 12 12 12 11 10 10 10 10 10 9 9 9 9 9 9 9 9 9 9 9 8 8 9 9 9 9 10 10 10 10 11 12 12 12
15 15 15 15 15 14 14 13 12 12 13 12 12 11 11 11 11 11 10 10 10 10 10 10 9 9 9 9 9 9 9 9 9 10 10 10 10 10 11 11 12 13 13 13
15 15 16 16 15 14 14 14 12 12 13 13 13 12 12 12 12 11 11 11 11 10 10 10 10 10 10 10 11 11 10 10 10 11 11 11 11 11 12 12 13 13 12 12
16 15 16 16 16 15 15 14 14 14 13 13 14 13 13 13 12 12 12 11 11 11 11 11 10 11 11 11 12 12 12 12 12 12 12 12 12 13 13 13 13 13 12 12
16 16 16 17 17 16 16 15 15 14 14 14 14 14 13 13 12 13 12 12 12 12 11 11 11 12 12 12 12 12 12 12 12 12 13 13 13 13 13 13 12 12 13 13
17 16 17 17 17 17 16 15 15 15 15 15 14 14 13 13 13 13 13 12 12 12 12 12 12 12 12 12 12 12 12 12 12 13 13 13 14 14 14 13 13 13 13 14
17 17 17 17 16 17 17 16 16 16 17 16 14 15 14 13 14 14 13 12 12 13 13 13 12 12 12 12 12 12 12 13 13 13 14 14 14 14 15 15 14 14 15 15
17 17 17 17 16 16 17 17 17 18 17 16 15 15 14 14 14 13 13 13 13 13 13 13 13 13 13 13 13 13 13 14 14 15 15 15 15 15 15 16 16 16 16 16
16 16 17 17 17 17 17 17 17 17 17 17 16 15 14 14 14 14 14 14 14 14 14 14 15 14 14 14 13 14 14 15 16 16 17 17 16 16 16 17 17 18 18 18
15 16 17 17 17 18 18 17 17 18 17 17 17 16 15 15 15 15 15 15 16 16 16 16 16 15 15 15 15 16 16 16 17 18 18 18 17 18 18 18 18 19 20 20
15 15 16 17 18 17 17 18 19 18 18 18 17 16 16 16 16 16 16 16 16 17 17 17 17 17 16 16 17 17 17 18 18 18 18 19 19 19 19 19 20 20 20 21
14 14 16 17 18 18 18 19 19 19 19 19 18 17 17 17 17 16 16 17 17 17 17 17 17 18 18 18 18 18 18 18 19 19 19 19 19 19 20 20 21 21 21 21
15 15 15 16 18 19 19 19 19 20 20 20 19 17 17 18 18 17 17 17 17 18 18 17 18 18 18 18 19 19 19 19 19 19 19 19 20 20 20 20 21 22 22 21
16 16 16 15 16 18 19 19 20 21 20 20 19 17 17 19 19 18 18 18 18 18 18 18 19 19 18 19 19 20 19 19 19 19 19 19 20 20 20 21 21 21 22 22
17 17 17 17 17 18 19 19 20 20 21 20 19 18 17 18 19 19 18 18 19 19 19 19 19 19 19 19 19 19 19 19 19 19 19 19 20 20 20 21 21 22 22 22
16 17 17 17 18 19 19 19 20 20 21 20 20 19 19 19 19 19 19 19 19 20 20 20 20 20 20 20 19 19 19 19 19 19 19 20 20 21 21 22 22 22 22 23
16 17 17 17 19 19 19 18 19 20 20 20 20 20 20 19 19 20 20 20 21 21 21 20 20 20 20 20 20 20 20 20 19 19 20 20 21 21 22 22 23 23 23 23
16 17 17 18 18 19 18 18 18 20 20 20 20 20 20 20 20 21 21 22 22 22 22 21 21 21 22 22 22 22 21 21 21 20 20 21 21 21 22 22 23 23 23 23
17 18 19 19 19 19 19 19 18 18 19 20 20 20 21 21 21 22 22 23 23 23 23 22 22 22 23 23 24 23 22 22 22 22 22 21 21 22 23 23 23 24 24 23
18 19 19 20 20 20 20 20 20 19 19 20 21 21 21 21 22 22 23 24 24 23 23 24 24 24 24 25 25 24 24 24 23 23 23 23 23 24 24 25 25 25 25 25
19 20 20 20 20 20 20 21 21 21 20 20 21 22 22 22 22 23 23 24 25 25 25 25 25 26 26 26 26 26 26 25 24 24 24 24 25 25 26 26 26 25 26 26
20 21 20 21 21 21 21 22 21 22 22 22 21 22 23 23 23 24 25 25 25 26 26 27 27 26 26 26 27 28 27 27 27 27 26 26 26 26 26 26 26 26 26 26
22 22 22 22 21 22 22 22 22 22 23 24 23 24 24 24 24 25 25 26 26 26 27 28 28 27 27 28 27 27 28 28 28 28 28 28 28 27 27 27 27 26 27 27
23 24 24 24 23 23 24 24 24 24 25 26 25 26 26 25 25 25 25 26 26 26 27 27 28 28 28 29 29 29 29 29 29 30 30 29 29 28 28 28 27 27 28 28
22 24 24 24 24 25 25 26 26 26 26 26 27 27 27 26 26 26 26 26 27 27 27 28 28 28 28 29 29 29 30 30 30 30 30 30 30 29 29 28 28 28 29 29
23 24 24 23 24 25 25 26 26 26 26 26 27 27 27 28 27 27 27 27 27 28 28 29 29 28 28 28 29 29 30 30 30 30 30 30 29 29 29 29 29 29 30 30
Wind_Direction
234 232 230 233 236 238 238 240 242 244 243 244 244 241 240 245 245 246 247 246 250 253 259 266 268 269 269 268 268 270 272 275 277 281 284 285 283 283 283 285 285 286 288 288
232 231 231 234 236 239 240 241 242 244 244 244 243 244 245 248 248 248 246 245 247 253 259 266 271 272 270 268 269 271 272 276 279 280 283 289 289 286 286 287 288 288 287 287
233 232 232 233 237 239 241 245 245 243 240 246 248 246 249 250 251 250 248 248 248 253 260 264 268 271 271 270 269 269 271 274 276 279 282 287 289 288 287 285 287 287 284 282
232 231 231 231 234 237 241 243 245 246 248 249 250 250 248 252 252 249 249 249 249 253 259 264 268 273 272 269 269 268 271 274 277 280 283 285 287 289 288 285 284 284 283 283
232 231 232 233 234 238 241 240 243 247 251 251 250 250 246 251 253 252 251 251 253 257 259 264 269 272 271 269 270 270 273 274 276 279 283 286 288 290 289 288 287 285 284 285
234 234 236 236 235 237 239 240 243 247 249 250 249 252 249 250 254 254 253 252 254 256 258 262 268 272 273 270 270 271 275 275 278 281 283 285 288 288 287 286 285 286 288 286
234 234 237 237 236 236 239 239 243 247 249 249 249 252 251 251 255 256 256 255 256 257 260 264 270 273 275 272 273 274 275 277 280 282 285 286 286 286 285 285 284 286 287 287
235 234 234 236 238 238 239 239 243 250 253 254 253 254 253 253 255 256 257 258 261 263 263 265 268 273 274 273 273 275 276 278 280 282 285 285 284 285 284 284 284 284 287 288
239 237 236 238 239 240 241 241 245 250 253 254 255 254 252 254 252 252 256 261 265 268 266 265 268 271 271 273 276 277 278 280 282 284 284 285 283 284 285 286 286 286 287 287
241 239 235 238 238 240 245 247 246 249 255 257 256 254 254 254 254 254 256 260 265 268 268 267 269 271 270 272 277 280 280 281 284 285 285 284 284 284 284 284 285 285 285 285
241 242 238 239 238 240 244 247 249 251 256 261 262 260 261 258 258 257 258 260 263 268 269 269 269 270 269 272 276 281 282 281 283 284 283 282 282 282 283 284 285 285 284 284
241 244 239 240 240 241 246 250 252 254 256 260 265 263 262 260 258 258 259 261 263 266 268 268 268 268 269 271 275 278 282 283 282 282 281 280 280 281 283 283 285 284 285 285
244 247 244 240 243 244 248 251 254 256 257 260 264 263 261 260 260 260 262 263 263 265 266 267 268 269 270 272 274 277 280 284 284 282 281 280 280 282 282 284 285 285 285 286
247 251 251 247 246 246 249 251 252 255 258 261 263 262 260 260 263 263 263 262 262 263 264 265 268 269 270 272 275 277 280 282 286 287 284 283 282 283 283 284 285 286 286 287
249 251 251 251 251 250 249 252 255 257 259 262 261 261 263 262 264 263 262 262 262 263 264 266 267 269 271 272 274 277 281 283 285 286 285 285 284 283 283 285 285 285 285 286
250 253 253 254 255 253 254 255 258 260 260 260 261 262 264 264 264 263 263 263 264 264 266 268 270 270 271 273 275 279 282 282 284 285 286 286 285 284 284 285 286 286 285 285
252 257 260 260 258 256 254 259 262 262 262 263 265 263 264 265 265 264 263 264 264 265 267 268 269 269 271 274 276 279 281 281 282 286 287 286 286 287 286 286 288 288 287 286
257 260 264 264 260 258 260 261 263 263 265 265 267 265 265 265 265 264 264 265 266 266 265 266 267 270 271 273 275 277 278 280 284 285 285 286 286 286 286 287 289 289 289 287
260 263 266 266 267 265 261 262 265 267 266 267 268 268 268 266 267 266 266 268 268 265 264 265 267 269 271 273 275 276 280 281 284 285 285 284 284 285 287 288 288 289 290 289
260 262 266 267 267 268 268 264 265 268 268 267 267 268 269 269 269 270 268 269 269 268 267 266 267 269 271 272 273 276 279 282 284 285 285 284 285 286 287 286 286 287 288 288
259 261 266 267 267 270 271 268 266 268 270 269 270 270 271 272 272 272 270 271 271 269 268 268 268 270 270 271 272 275 278 281 283 283 284 285 286 288 287 286 286 286 287 287
263 264 265 265 266 269 269 267 268 269 269 271 271 271 273 274 273 272 273 273 273 270 269 269 270 271 270 270 273 275 277 279 281 282 283 284 285 286 286 286 285 285 286 287
264 266 267 267 268 268 266 265 267 269 269 271 272 272 272 274 274 274 274 274 274 272 272 272 272 273 272 271 272 274 275 277 280 281 282 284 285 285 286 285 285 285 285 286
267 266 266 266 267 267 266 265 266 270 271 272 274 274 273 273 274 275 275 275 274 274 274 275 275 274 274 274 273 275 276 277 279 282 283 284 284 284 284 284 283 283 284 284
269 268 267 266 265 265 267 267 269 271 273 274 275 275 274 274 274 274 274 274 274 274 275 277 277 277 276 276 277 278 278 279 281 283 284 285 284 283 282 282 283 283 284 285
269 270 268 268 267 266 267 269 271 272 274 276 275 274 274 275 275 274 273 275 276 277 278 279 280 279 279 279 279 280 280 281 282 283 284 284 285 284 283 282 281 282 283 284
Height
5816 5819 5820 5822 5824 5826 5828 5829 5830 5831 5832 5833 5834 5835 5836 5836 5837 5838 5838 5838 5838 5839 5839 5838 5839 5838 5838 5838 5838 5838 5838 5838 5838 5837 5837 5836 5835 5835 5834 5834 5833 5832 5832 5832
5814 5816 5818 5820 5822 5823 5825 5826 5827 5829 5829 5830 5831 5832 5833 5834 5834 5835 5836 5836 5836 5836 5836 5836 5836 5836 5836 5836 5836 5836 5835 5835 5835 5834 5834 5833 5832 5832 5831 5831 5830 5829 5829 5828
5810 5814 5815 5817 5819 5820 5822 5824 5825 5826 5827 5827 5829 5830 5831 5831 5832 5833 5833 5833 5833 5834 5834 5834 5833 5833 5833 5833 5833 5833 5833 5832 5832 5831 5831 5830 5830 5829 5828 5828 5827 5826 5825 5825
5807 5810 5812 5814 5816 5818 5819 5821 5822 5823 5824 5825 5826 5827 5828 5828 5829 5830 5830 5831 5831 5831 5831 5831 5831 5831 5830 5830 5830 5829 5829 5829 5829 5828 5828 5827 5826 5826 5825 5824 5823 5822 5822 5821
5804 5807 5809 5811 5813 5815 5816 5818 5819 5819 5820 5822 5823 5824 5826 5826 5826 5827 5827 5828 5828 5828 5828 5828 5828 5827 5827 5826 5826 5826 5825 5825 5825 5825 5824 5824 5823 5822 5821 5820 5820 5819 5819 5818
5801 5803 5805 5807 5809 5811 5813 5814 5815 5816 5817 5819 5820 5821 5823 5823 5823 5824 5824 5824 5825 5825 5825 5825 5825 5824 5824 5823 5823 5822 5822 5822 5821 5821 5820 5820 5819 5818 5817 5817 5816 5816 5815 5814
5798 5800 5801 5803 5805 5808 5809 5811 5812 5812 5813 5815 5816 5817 5819 5820 5820 5820 5821 5821 5821 5822 5822 5822 5821 5821 5820 5820 5819 5819 5818 5818 5818 5817 5816 5815 5815 5814 5814 5813 5812 5812 5811 5810
5794 5796 5798 5799 5802 5803 5805 5807 5809 5809 5810 5812 5812 5813 5816 5816 5816 5816 5817 5817 5818 5818 5818 5818 5817 5817 5817 5816 5816 5815 5815 5814 5814 5813 5812 5811 5811 5810 5809 5809 5808 5808 5807 5806
5790 5792 5795 5796 5798 5800 5801 5802 5804 5806 5806 5807 5808 5810 5811 5812 5812 5813 5813 5814 5814 5814 5814 5814 5814 5813 5813 5812 5812 5811 5811 5810 5809 5809 5808 5807 5806 5805 5805 5804 5804 5803 5802 5801
5786 5788 5790 5792 5794 5796 5798 5799 5800 5801 5801 5803 5804 5806 5807 5808 5808 5809 5809 5810 5810 5810 5810 5810 5809 5809 5809 5808 5807 5807 5806 5805 5804 5803 5802 5802 5801 5800 5800 5799 5799 5798 5797 5796
5782 5784 5786 5788 5790 5792 5794 5795 5796 5797 5798 5799 5800 5804 5803 5803 5804 5805 5805 5805 5805 5805 5805 5805 5805 5804 5804 5803 5803 5802 5801 5800 5799 5798 5797 5796 5795 5795 5794 5794 5793 5792 5791 5790
5778 5780 5782 5784 5786 5787 5789 5791 5792 5793 5794 5795 5796 5801 5798 5799 5799 5800 5801 5801 5801 5800 5800 5800 5799 5799 5799 5799 5798 5797 5796 5795 5794 5792 5791 5791 5790 5789 5788 5788 5787 5786 5785 5784
5775 5776 5778 5780 5784 5784 5785 5786 5787 5788 5789 5790 5791 5796 5793 5793 5794 5795 5795 5796 5796 5795 5795 5795 5794 5794 5794 5793 5792 5791 5790 5789 5788 5787 5786 5785 5784 5783 5782 5781 5780 5779 5778 5777
5771 5773 5775 5777 5778 5779 5780 5781 5782 5783 5784 5785 5787 5788 5788 5788 5789 5790 5790 5790 5790 5790 5790 5790 5789 5789 5789 5788 5787 5786 5785 5784 5782 5781 5780 5779 5778 5777 5776 5775 5774 5773 5772 5771
5767 5769 5770 5771 5772 5774 5775 5776 5777 5778 5779 5780 5782 5782 5783 5783 5784 5784 5784 5784 5784 5785 5785 5784 5784 5784 5783 5782 5781 5780 5779 5778 5777 5776 5775 5774 5772 5771 5770 5769 5768 5767 5765 5764
5764 5765 5766 5767 5768 5769 5770 5771 5772 5773 5774 5775 5776 5777 5777 5778 5778 5778 5779 5779 5778 5779 5779 5779 5778 5778 5777 5776 5775 5774 5773 5772 5771 5770 5769 5768 5767 5765 5764 5763 5762 5760 5759 5757
5760 5761 5762 5763 5764 5764 5766 5768 5768 5768 5769 5770 5770 5772 5771 5772 5772 5773 5773 5773 5773 5773 5773 5772 5772 5772 5771 5771 5770 5768 5767 5766 5765 5763 5762 5761 5760 5759 5758 5756 5755 5753 5752 5750
5757 5757 5758 5759 5760 5761 5765 5763 5763 5763 5764 5764 5764 5765 5765 5766 5766 5767 5767 5767 5766 5766 5766 5766 5766 5766 5765 5764 5764 5763 5761 5760 5759 5757 5756 5755 5754 5753 5751 5750 5748 5747 5745 5743
5753 5753 5754 5755 5755 5756 5758 5758 5758 5758 5759 5759 5759 5759 5760 5760 5760 5760 5760 5760 5760 5760 5759 5759 5759 5759 5758 5758 5757 5756 5755 5754 5753 5751 5750 5748 5747 5746 5745 5743 5742 5740 5738 5737
5748 5749 5750 5750 5750 5751 5753 5753 5752 5754 5754 5754 5754 5754 5754 5754 5755 5755 5754 5754 5753 5753 5752 5753 5752 5752 5751 5751 5750 5749 5748 5747 5746 5745 5743 5742 5741 5739 5738 5736 5734 5733 5731 5730
5744 5744 5745 5744 5744 5746 5747 5747 5748 5749 5750 5749 5748 5748 5748 5748 5748 5748 5747 5747 5746 5746 5745 5745 5745 5745 5744 5743 5742 5742 5741 5740 5739 5737 5736 5735 5733 5732 5730 5729 5727 5725 5724 5722
5739 5739 5740 5740 5740 5743 5742 5742 5743 5743 5742 5742 5742 5742 5742 5742 5741 5740 5740 5740 5739 5739 5738 5738 5738 5737 5736 5736 5735 5734 5733 5732 5731 5730 5729 5727 5726 5724 5722 5721 5719 5718 5716 5715
5733 5734 5734 5735 5737 5736 5736 5736 5736 5736 5736 5736 5736 5736 5735 5735 5734 5734 5733 5732 5732 5732 5731 5730 5730 5729 5728 5727 5727 5726 5725 5724 5723 5722 5721 5719 5718 5716 5714 5713 5711 5710 5708 5707
5727 5727 5728 5729 5730 5730 5730 5730 5730 5730 5730 5730 5729 5729 5729 5728 5727 5727 5726 5725 5725 5724 5723 5722 5722 5721 5720 5719 5718 5717 5716 5716 5715 5714 5712 5711 5709 5707 5706 5704 5703 5701 5700 5698
5721 5720 5721 5722 5723 5723 5723 5723 5723 5723 5723 5723 5722 5722 5721 5721 5720 5719 5718 5718 5717 5716 5716 5714 5713 5713 5712 5710 5709 5708 5707 5707 5706 5705 5703 5701 5700 5699 5697 5696 5694 5693 5692 5690
5715 5715 5715 5716 5716 5716 5716 5716 5716 5716 5716 5715 5715 5715 5714 5713 5712 5711 5711 5710 5709 5708 5707 5706 5705 5704 5703 5702 5701 5700 5698 5697 5696 5695 5694 5692 5691 5690 5688 5687 5686 5684 5682 5681